Content
SEND FEEDBACK

Daily
Averages
Monthly
Summary
United States of America

ORANGE, TEXAS


Home > North America > United States > Texas
Elevation: 1 foot     Latitude: 30 07N     Longitude: 093 47W

WEATHER
 
SELECT A DAY
Number of Records: 109,545;   Date Range: 8/25/05 - 8/27/14
 
SHARE

PRINT THIS DATA

[ ← Previous Day ]
WEATHER ALMANAC - FEBRUARY 16, 2014
[ Next Day → ]
[ °C ]   °F
Weather ElementAverageHighLow
Temperature59.6 °F73.4 °F (1:15 pm)43 °F (12:35 am)
Dewpoint55.5 °F61.3 °F (7:15 pm)41.7 °F (12:35 am)
Humidity87.2 %99 % (7:35 am)65 % (1:15 pm)
Barometer30.10 in30.16 in (9:15 am)30.07 in (2:55 pm)
Wind Speed5.4 mph15 mph (1:35 pm)
Wind Gust18.4 mph (1:15 pm)
Weather ElementAverage
Visibility8.5 mi
Wind DirectionESE (105.6 °)

Weather ElementTotal
Precipitation---
Heating Degree Days6.8 (Base 65)
Growing Degree Days8.2 (Base 50)
Averaged from 70 records on February 16, 2014
WEATHER CONDITIONS BREAKOUT
WIND DIRECTION BREAKOUT
WEATHER BY HOUR - FEBRUARY 16, 2014
[ °C ]   °F
Local TimeTemperatureDewpointHumidityBarometerVisibilityWind DirectionWind SpeedGust SpeedPrecipitationEventsConditions
12:35 AM43.0 °F41.7 °F95 %30.14 in10.0 miCalmMostly Cloudy
12:55 AM44.4 °F43.3 °F96 %30.13 in10.0 miCalmOvercast
1:15 AM46.4 °F45.0 °F95 %30.13 in10.0 miCalmOvercast
1:35 AM47.7 °F46.4 °F95 %30.13 in10.0 miNE (50°)3.5 mphOvercast
1:55 AM49.1 °F47.3 °F93 %30.13 in10.0 miENE (60°)3.5 mphOvercast
2:15 AM48.9 °F47.3 °F94 %30.13 in10.0 miESE (110°)3.5 mphScattered Clouds
2:35 AM48.0 °F46.4 °F94 %30.12 in10.0 miCalmClear
2:55 AM48.2 °F47.3 °F97 %30.11 in10.0 miCalmClear
3:15 AM48.4 °F47.5 °F97 %30.11 in7.0 miCalmClear
3:35 AM48.2 °F47.5 °F97 %30.11 in4.0 miCalmClear
3:55 AM46.8 °F46.0 °F97 %30.11 in4.0 miCalmClear
4:15 AM46.0 °F45.3 °F97 %30.10 in1.8 miCalmMist
4:35 AM46.2 °F45.7 °F98 %30.10 in0.5 miCalmFogFog
4:55 AM45.7 °F45.1 °F98 %30.10 in1.0 miCalmOvercast
5:15 AM46.9 °F46.4 °F98 %30.10 in5.0 miCalmOvercast
5:35 AM48.2 °F47.5 °F97 %30.11 in2.5 miCalmOvercast
5:55 AM47.3 °F46.8 °F98 %30.11 in5.0 miCalmMostly Cloudy
6:15 AM46.8 °F46.2 °F98 %30.11 in7.0 miCalmMostly Cloudy
6:35 AM48.2 °F47.5 °F97 %30.11 in4.0 miCalmScattered Clouds
6:55 AM48.2 °F47.5 °F97 %30.12 in5.0 miCalmOvercast
7:15 AM49.1 °F48.6 °F98 %30.13 in5.0 miCalmOvercast
7:35 AM49.5 °F49.1 °F99 %30.12 in4.0 miCalmMostly Cloudy
7:55 AM50.0 °F49.5 °F98 %30.13 in5.0 miCalmMostly Cloudy
8:15 AM51.8 °F51.1 °F97 %30.13 in5.0 miCalmMostly Cloudy
8:35 AM54.5 °F53.1 °F95 %30.14 in7.0 miCalmOvercast
8:55 AM57.9 °F56.3 °F94 %30.14 in7.0 miCalmOvercast
9:15 AM59.2 °F56.8 °F92 %30.16 in7.0 miSSE (150°)3.5 mphMostly Cloudy
9:55 AM65.7 °F59.9 °F82 %30.14 in10.0 miSE (140°)5.8 mphClear
10:15 AM68.0 °F60.1 °F76 %30.14 in10.0 miSSE (150°)8.1 mphScattered Clouds
10:35 AM69.3 °F60.4 °F73 %30.14 in10.0 miSouth (170°)9.2 mphMostly Cloudy
10:55 AM68.4 °F60.4 °F76 %30.14 in10.0 miSouth (170°)9.2 mphOvercast
11:15 AM68.9 °F60.6 °F75 %30.14 in10.0 miSSE (160°)9.2 mphOvercast
11:35 AM70.3 °F60.6 °F71 %30.14 in10.0 miSouth (170°)10.4 mphMostly Cloudy
11:55 AM71.4 °F60.4 °F68 %30.13 in10.0 miSouth (190°)11.5 mph17.3 mphScattered Clouds
12:15 PM70.2 °F60.4 °F71 %30.13 in10.0 miSouth (180°)10.4 mph17.3 mphMostly Cloudy
12:35 PM70.0 °F60.8 °F73 %30.12 in10.0 miSSE (160°)10.4 mphOvercast
12:55 PM70.7 °F60.8 °F71 %30.11 in10.0 miSouth (170°)12.7 mphOvercast
1:15 PM73.4 °F61.0 °F65 %30.10 in10.0 miSSE (160°)13.8 mph18.4 mphOvercast
1:35 PM73.4 °F61.0 °F65 %30.09 in10.0 miSouth (170°)15.0 mph18.4 mphMostly Cloudy
1:55 PM70.7 °F60.3 °F69 %30.09 in10.0 miSouth (180°)13.8 mph18.4 mphMostly Cloudy
2:15 PM70.5 °F60.4 °F70 %30.09 in10.0 miSouth (170°)11.5 mphOvercast
2:35 PM70.9 °F60.3 °F69 %30.08 in10.0 miSouth (180°)11.5 mph17.3 mphOvercast
2:55 PM71.4 °F60.6 °F69 %30.07 in10.0 miSSE (150°)12.7 mphOvercast
3:15 PM70.3 °F60.6 °F71 %30.07 in10.0 miSouth (170°)9.2 mphOvercast
3:35 PM69.6 °F60.4 °F73 %30.07 in10.0 miSSE (150°)10.4 mphOvercast
3:55 PM69.1 °F60.3 °F73 %30.07 in10.0 miSSE (160°)10.4 mphOvercast
4:15 PM68.4 °F60.6 °F76 %30.08 in10.0 miSouth (170°)9.2 mphMostly Cloudy
4:35 PM67.6 °F60.8 °F79 %30.08 in10.0 miSSE (160°)9.2 mphOvercast
4:55 PM67.1 °F60.8 °F80 %30.08 in10.0 miSouth (170°)6.9 mphOvercast
5:15 PM66.4 °F60.8 °F82 %30.08 in10.0 miSSE (160°)8.1 mphOvercast
5:35 PM65.7 °F60.8 °F84 %30.08 in10.0 miSSE (160°)5.8 mphOvercast
5:55 PM65.3 °F60.8 °F85 %30.08 in10.0 miSSE (160°)6.9 mphOvercast
6:15 PM64.6 °F60.8 °F88 %30.08 in10.0 miSSE (150°)5.8 mphOvercast
6:35 PM64.4 °F60.8 °F88 %30.08 in10.0 miSSE (150°)4.6 mphOvercast
6:55 PM64.4 °F60.8 °F88 %30.08 in10.0 miSSE (160°)4.6 mphOvercast
7:15 PM64.4 °F61.3 °F90 %30.08 in10.0 miSE (130°)5.8 mphOvercast
7:35 PM64.4 °F61.3 °F90 %30.09 in10.0 miSSE (160°)4.6 mphOvercast
7:55 PM63.9 °F61.2 °F91 %30.09 in10.0 miSouth (180°)4.6 mphOvercast
8:15 PM63.1 °F60.8 °F92 %30.09 in10.0 miSouth (170°)3.5 mphOvercast
8:35 PM62.6 °F60.4 °F93 %30.08 in10.0 miSSE (150°)5.8 mphOvercast
8:55 PM61.9 °F59.9 °F93 %30.08 in10.0 miSE (140°)4.6 mphOvercast
9:15 PM61.7 °F59.9 °F94 %30.09 in10.0 miSSE (160°)3.5 mphMostly Cloudy
9:35 PM61.7 °F59.7 °F93 %30.09 in10.0 miSSE (160°)4.6 mphOvercast
9:55 PM61.5 °F59.4 °F93 %30.08 in10.0 miSSE (160°)6.9 mphOvercast
10:15 PM61.5 °F59.4 °F93 %30.07 in10.0 miSSE (150°)8.1 mphOvercast
10:35 PM61.2 °F59.2 °F93 %30.08 in10.0 miSouth (180°)6.9 mphOvercast
10:55 PM60.8 °F59.0 °F94 %30.08 in10.0 miSouth (170°)8.1 mphMostly Cloudy
11:15 PM60.8 °F59.2 °F94 %30.07 in10.0 miSouth (170°)9.2 mphOvercast
11:35 PM61.2 °F59.5 °F94 %30.07 in10.0 miSouth (170°)9.2 mphOvercast
11:55 PM61.2 °F59.5 °F94 %30.07 in10.0 miSouth (180°)10.4 mphOvercast
Hourly data recorded from KORG, located miles away from Orange, Texas







STORIES FROM OUR PARTNERS